sat.trackr.live / text

‹ back to catalog

STARLINK-5669

NORAD 55459 · 2023-015L

PAYLOAD ACTIVE UNKNOWN

§ Identity

Operator
Country
US
Launch date
2023-02-02
Launch site
AFETR
Launch vehicle
Mass (kg)
RCS (m²)

Purposes: comms

External: N2YO · Heavens-Above · Gunter

§ Orbital elements

Epoch: 2026-09-20T14:54:53.886528Z

Period
94.27 min
Inclination
43.0036°
Eccentricity
0.0001462
Mean motion
15.27577001 rev/d
Perigee alt
482.1 km
Apogee alt
484.1 km
Semi-major
6,861.2 km
B*
-5.9093e-6
RAAN
307.9131°
Arg perigee
274.4091°
Mean anomaly
85.6593°
Rev number
20,053

§ Raw data

STARLINK-56691 55459U 23015L   26263.62145702 -.00000425  00000+0 -59093-5 0  99982 55459  43.0036 307.9131 0001462 274.4091  85.6593 15.27577001200531

JSON: /api/v1/satellites/55459 · /tle

For live sub-satellite position, see the globe view (requires WebGL).

§ Visibility from observer

Set your observer location to see the next 7 days of passes ≥ 10°. The values pass through the URL so the page stays shareable.

No JS? Fill the form by hand. The geolocation button needs JavaScript.